Regional Weather Roundup
Issued by NWS

Home | Current Version | Previous Version | Graphics & Text | Print | Product List | Glossary On
Versions: 1 2 3 4 5 6 7 8 9 10 11 12 13 14 15 16 17 18 19 20 21 22 23 24 25 26 27 28 29 30 31 32 33 34 35 36 37 38 39 40 41 42 43 44 45 46 47 48 49 50
000
ASUS43 KFSD 280402
RWRSD

WEATHER ROUNDUP FOR SOUTH DAKOTA
NATIONAL WEATHER SERVICE SIOUX FALLS SD
1100 PM CDT MON MAR 27 2017

NOTE: "FAIR" INDICATES FEW OR NO CLOUDS BELOW 12,000 FEET WITH NO
SIGNIFICANT WEATHER AND/OR OBSTRUCTIONS TO VISIBILITY.


SDZ001>005-009-010-012>017-280500-
NORTHWEST AND NORTH CENTRAL SOUTH DAKOTA

CITY           SKY/WX    TMP DP  RH WIND       PRES   REMARKS
BUFFALO          N/A     45  35  68 SE12      29.88R
FAITH            N/A     45  35  68 MISG      29.96R
MOBRIDGE       CLEAR     43  33  68 E3        29.96R
$$

SDZ012>016-024>037-041>051-057-063-072>074-280500-
SOUTHWEST AND SOUTH CENTRAL SOUTH DAKOTA

CITY           SKY/WX    TMP DP  RH WIND       PRES   REMARKS
RAPID CTY ARPT PTCLDY    47  35  63 E12       29.93R
PIERRE         CLEAR     42  32  67 E6        29.96R
CUSTER         CLOUDY    41  31  67 NE9       29.94R
ELLSWORTH AFB  MOCLDY    47  36  64 CALM      29.93R
PHILIP         CLOUDY    47  33  58 E9        29.94R
PINE RIDGE     CLOUDY    45  38  76 NE10      29.88R
SPEARFISH      FAIR      45  39  81 E10       29.94R
WINNER         CLOUDY    53  37  54 SE13      29.94R
$$

SDZ004>011-016>023-039-040-280500-
NORTHEAST SOUTH DAKOTA

CITY           SKY/WX    TMP DP  RH WIND       PRES   REMARKS
ABERDEEN       CLOUDY    44  32  62 N3        30.01R
WATERTOWN      CLOUDY    46  37  71 E6        30.01R
BROOKINGS      PTCLDY    45  36  70 E3        30.00R
SISSETON         N/A     37  32  82 CALM      30.01R
$$

SDZ017-020-022-023-036>040-048>070-280500-
SOUTHEAST SOUTH DAKOTA

CITY           SKY/WX    TMP DP  RH WIND       PRES   REMARKS
SIOUX FALLS    PTCLDY    46  39  76 S8        30.01R
HURON          CLEAR     42  36  79 E6        29.99R
MITCHELL       CLEAR     45  37  73 SE7       29.99R
YANKTON        CLEAR     45  37  76 SE7       30.00S
$$

ABBREVIATIONS USED IN REMARKS
   TC - TEMPERATURE IN CELSIUS
  WCI - WIND CHILL INDEX
   HX - HEAT INDEX
  VSB - VISIBILITY




USA.gov is the U.S. government's official web portal to all federal, state and local government web resources and services.